Regional Weather Roundup
Issued by NWS

Home | Current Version | Previous Version | Text Only | Print | Product List | Glossary Off
Versions: 1 2 3 4 5 6 7 8 9 10 11 12 13 14 15 16 17 18 19 20 21 22 23 24 25 26 27 28 29 30 31 32 33 34 35 36 37 38 39 40 41 42 43 44 45 46 47 48 49 50

000
ASUS43 KFSD 172202
RWRSD

WEATHER ROUNDUP FOR SOUTH DAKOTA
NATIONAL WEATHER SERVICE SIOUX FALLS SD
400 PM CST SUN DEC 17 2017

NOTE: "FAIR" INDICATES FEW OR NO CLOUDS BELOW 12,000 FEET WITH NO
SIGNIFICANT WEATHER AND/OR OBSTRUCTIONS TO VISIBILITY.


SDZ001>005-009-010-012>017-172300-
NORTHWEST AND NORTH CENTRAL SOUTH DAKOTA

CITY           SKY/WX    TMP DP  RH WIND       PRES   REMARKS
BUFFALO          N/A     41  25  53 W16       29.73F
FAITH            N/A     38  25  59 SW9       29.82F
MOBRIDGE       CLEAR     42  21  43 S8        29.82F
$$

SDZ012>016-024>037-041>051-057-063-072>074-172300-
SOUTHWEST AND SOUTH CENTRAL SOUTH DAKOTA

CITY           SKY/WX    TMP DP  RH WIND       PRES   REMARKS
RAPID CTY ARPT CLEAR     43  24  47 S5        29.79F
PIERRE         CLOUDY    40  29  64 SW5       29.88S
CUSTER         SUNNY     29  20  69 W13G22    29.77F WCI  19
ELLSWORTH AFB  CLEAR     43  25  49 N9        29.78F
PHILIP         CLEAR     42  29  59 S12       29.84F
PINE RIDGE     SUNNY     43  28  55 SW8       29.83F
SPEARFISH      FAIR      39  25  56 W6        29.80S
WINNER         CLOUDY    42  30  62 S8        29.91F
$$

SDZ004>011-016>023-039-040-172300-
NORTHEAST SOUTH DAKOTA

CITY           SKY/WX    TMP DP  RH WIND       PRES   REMARKS
ABERDEEN       CLOUDY    36  28  73 S3        29.91F
WATERTOWN      CLOUDY    36  32  85 W3        29.90F
BROOKINGS      CLOUDY    37  29  72 W5        29.93S
SISSETON         N/A     36  32  85 SE6       29.91F
$$

SDZ017-020-022-023-036>040-048>070-172300-
SOUTHEAST SOUTH DAKOTA

CITY           SKY/WX    TMP DP  RH WIND       PRES   REMARKS
SIOUX FALLS    MOCLDY    40  30  67 CALM      29.94F
HURON          CLOUDY    41  32  70 MISG      29.92F
CHAMBERLAIN    CLOUDY    42  33  72 S5        29.91F
MITCHELL       CLOUDY    42  29  59 W3        29.95F
$$

ABBREVIATIONS USED IN REMARKS
   TC - TEMPERATURE IN CELSIUS
  WCI - WIND CHILL INDEX
   HX - HEAT INDEX
  VSB - VISIBILITY





USA.gov is the U.S. government's official web portal to all federal, state and local government web resources and services.